Date String (YYYY-MM-DD hh:mm:ss) UTC,Instrument flags,absolute air pressure of the measurement (hPa),sample flow rate (lpm),inlet stack bypass flow (lpm),air temperature of the measurement (°C),ambient temperature measured by the external sensor (°C),aerosol sample conditioner tube jacket temperature (°C),OPC LED temperature (°C),internal box temperature (°C),relative humidity of the measurement (%),span deviation,mass concentration of particles derived from Lorenz-Mie calculation of OPC scattering (μg/m³),mass concentration of particles derived from Lorenz-Mie calculation of OPC scattering (μg/m³),mass concentration of particles derived from Lorenz-Mie calculation of OPC scattering (μg/m³)
DateTimeUTC,F1_M11,P_M11,Q1_M11,Q2_M11,T1_M11,T2_M11,T3_M11,T4_M11,T5_M11,U1_M11,ZSPAN_M11,X2_M11,X0_M11,X1_M11
2023-09-13 08:00:00,SystemResetWarning,0831.3,4.99,000.00,028.4,025.7,000.0,037.0,029.7,18.6,0000.0,0004.43,0008.46,0004.08
2023-09-13 08:01:00,SystemResetWarning,0831.3,5.00,000.00,028.4,026.0,000.0,037.0,029.7,18.5,0000.0,0004.43,0008.19,0004.08
2023-09-13 08:02:00,SystemResetWarning,0831.3,5.00,000.00,028.4,026.2,000.0,037.0,029.7,18.5,0000.0,0004.42,0008.06,0004.07
2023-09-13 08:03:00,SystemResetWarning,0831.3,5.00,000.00,028.4,026.3,000.0,036.9,029.8,18.8,0000.0,0004.37,0007.90,0004.07
2023-09-13 08:04:00,SystemResetWarning,0831.2,5.01,000.00,028.4,026.5,000.0,036.9,029.8,18.6,0000.0,0004.37,0007.18,0004.07
2023-09-13 08:05:00,SystemResetWarning,0831.3,5.00,000.00,028.4,026.6,000.0,036.9,029.9,18.7,0000.0,0004.37,0007.64,0004.08
2023-09-13 08:06:00,SystemResetWarning,0831.2,4.99,000.00,028.4,026.7,000.0,036.9,029.9,18.8,0000.0,0004.38,0007.66,0004.10
2023-09-13 08:07:00,SystemResetWarning,0831.2,5.00,000.00,028.4,026.8,000.0,036.9,029.9,18.9,0000.0,0004.41,0007.68,0004.10
2023-09-13 08:08:00,SystemResetWarning,0831.2,5.01,000.00,028.4,026.9,000.0,036.9,030.0,18.2,0000.0,0004.43,0007.69,0004.11
2023-09-13 08:09:00,SystemResetWarning,0831.3,5.01,000.00,028.4,026.9,000.0,036.9,030.0,18.3,0000.0,0004.42,0007.67,0004.12
2023-09-13 08:10:00,SystemResetWarning,0831.3,5.00,000.00,028.4,027.0,000.0,036.9,030.0,18.3,0000.0,0004.42,0007.68,0004.13
2023-09-13 08:11:00,SystemResetWarning,0831.2,4.99,000.00,028.5,027.0,000.0,036.9,030.0,18.8,0000.0,0004.44,0007.72,0004.13
2023-09-13 08:12:00,SystemResetWarning,0831.3,4.99,000.00,028.5,027.0,000.0,036.9,030.0,18.7,0000.0,0004.46,0007.78,0004.15
2023-09-13 08:13:00,SystemResetWarning,0831.2,4.99,000.00,028.5,027.1,000.0,036.9,030.0,18.6,0000.5,0004.49,0007.77,0004.18
2023-09-13 08:14:00,SystemResetWarning,0831.2,5.00,000.00,028.5,027.1,000.0,036.9,030.0,18.5,0000.5,0004.53,0007.82,0004.19
2023-09-13 08:15:00,SystemResetWarning,0831.2,5.00,000.00,028.5,027.1,000.0,036.9,030.1,18.5,0000.0,0004.55,0007.74,0004.21
2023-09-13 08:16:00,SystemResetWarning,0831.2,5.00,000.00,028.5,027.1,000.0,036.9,030.1,18.5,0000.6,0004.57,0007.38,0004.24
2023-09-13 08:17:00,SystemResetWarning,0831.2,5.01,000.00,028.5,027.2,000.0,036.9,030.1,18.4,0001.2,0004.62,0007.78,0004.26
2023-09-13 08:18:00,SystemResetWarning,0831.2,5.01,000.00,028.6,027.2,000.0,036.9,030.1,17.6,0001.1,0004.62,0007.80,0004.28
2023-09-13 08:19:00,SystemResetWarning,0831.2,5.00,000.00,028.6,027.2,000.0,036.9,030.1,17.5,0000.6,0004.63,0007.92,0004.29
2023-09-13 08:20:00,SystemResetWarning,0831.2,4.98,000.00,028.6,027.2,000.0,036.9,030.2,17.6,0001.4,0004.65,0008.09,0004.30
2023-09-13 08:21:00,SystemResetWarning,0831.3,5.00,000.00,028.6,027.2,000.0,036.9,030.2,17.6,0001.2,0004.68,0008.28,0004.31
2023-09-13 08:22:00,SystemResetWarning,0831.2,5.00,000.00,028.6,027.2,000.0,036.9,030.2,17.5,0001.6,0004.68,0008.92,0004.32
2023-09-13 08:23:00,SystemResetWarning,0831.2,5.01,000.00,028.6,027.2,000.0,036.9,030.2,17.9,0001.9,0004.68,0008.87,0004.32
2023-09-13 08:24:00,SystemResetWarning,0831.2,5.01,000.00,028.6,027.2,000.0,036.9,030.2,17.6,0001.5,0004.69,0008.94,0004.32
2023-09-13 08:25:00,SystemResetWarning,0831.2,5.00,000.00,028.7,027.3,000.0,037.0,030.2,17.4,0001.2,0004.68,0008.98,0004.33
2023-09-13 08:26:00,SystemResetWarning,0831.2,4.99,000.00,028.7,027.3,000.0,037.0,030.2,17.4,0001.0,0004.68,0008.96,0004.33
2023-09-13 08:27:00,SystemResetWarning,0831.2,4.99,000.00,028.7,027.3,000.0,037.0,030.2,17.3,0000.5,0004.66,0009.55,0004.32
2023-09-13 08:28:00,SystemResetWarning,0831.3,5.00,000.00,028.7,027.3,000.0,037.0,030.3,17.5,0000.2,0004.63,0009.44,0004.32
2023-09-13 08:29:00,SystemResetWarning,0831.2,5.00,000.00,028.7,027.3,000.0,037.0,030.3,17.7,0000.0,0004.61,0009.38,0004.31
2023-09-13 08:30:00,SystemResetWarning,0831.2,5.00,000.00,028.7,027.3,000.0,037.0,030.3,18.1,-000.1,0004.60,0009.32,0004.30
2023-09-13 08:31:00,SystemResetWarning,0831.2,5.00,000.00,028.7,027.4,000.0,037.0,030.4,18.1,-000.0,0004.59,0009.13,0004.30
2023-09-13 08:32:00,SystemResetWarning,0831.2,5.00,000.00,028.7,027.4,000.0,037.0,030.4,17.5,0000.7,0004.59,0009.15,0004.30
2023-09-13 08:33:00,SystemResetWarning,0831.3,5.00,000.00,028.8,027.4,000.0,037.0,030.4,17.4,0000.9,0004.57,0008.37,0004.30
2023-09-13 08:34:00,SystemResetWarning,0831.2,5.01,000.00,028.8,027.4,000.0,037.1,030.4,17.4,0000.1,0004.55,0008.28,0004.30
2023-09-13 08:35:00,SystemResetWarning,0831.3,5.00,000.00,028.8,027.5,000.0,037.1,030.4,17.6,0000.0,0004.55,0008.29,0004.29
2023-09-13 08:36:00,SystemResetWarning,0831.3,5.00,000.00,028.8,027.5,000.0,037.1,030.5,17.9,0000.5,0004.55,0008.26,0004.29
2023-09-13 08:37:00,SystemResetWarning,0831.3,5.00,000.00,028.8,027.5,000.0,037.1,030.5,17.8,0000.7,0004.55,0008.23,0004.29
2023-09-13 08:38:00,SystemResetWarning,0831.2,4.99,000.00,028.8,027.5,000.0,037.1,030.5,17.4,0000.6,0004.56,0007.71,0004.30
2023-09-13 08:39:00,SystemResetWarning,0831.3,4.99,000.00,028.9,027.5,000.0,037.1,030.5,17.3,0000.9,0004.57,0007.50,0004.29
2023-09-13 08:40:00,SystemResetWarning,0831.3,5.00,000.00,028.9,027.5,000.0,037.1,030.5,17.3,0000.3,0004.58,0007.41,0004.30
2023-09-13 08:41:00,SystemResetWarning,0831.2,5.00,000.00,028.9,027.5,000.0,037.1,030.5,17.3,0000.0,0004.57,0007.84,0004.31
2023-09-13 08:42:00,SystemResetWarning,0831.2,5.00,000.00,028.9,027.5,000.0,037.2,030.5,17.4,0000.0,0004.57,0007.86,0004.32
2023-09-13 08:43:00,SystemResetWarning,0831.2,5.01,000.00,028.9,027.5,000.0,037.2,030.5,17.3,0000.0,0004.56,0007.80,0004.32
2023-09-13 08:44:00,SystemResetWarning,0831.2,5.01,000.00,028.9,027.6,000.0,037.2,030.5,17.2,0000.0,0004.59,0007.94,0004.33
2023-09-13 08:45:00,SystemResetWarning,0831.2,5.01,000.00,028.9,027.6,000.0,037.2,030.5,17.4,0000.1,0004.64,0008.05,0004.34
2023-09-13 08:46:00,SystemResetWarning,0831.2,4.99,000.00,028.9,027.6,000.0,037.2,030.6,18.5,0000.3,0004.65,0008.04,0004.36
2023-09-13 08:47:00,SystemResetWarning,0831.2,4.99,000.00,028.9,027.6,000.0,037.2,030.6,18.1,0000.2,0004.68,0008.07,0004.37
2023-09-13 08:48:00,SystemResetWarning,0831.2,5.00,000.00,029.0,027.6,000.0,037.2,030.6,18.0,0000.0,0004.69,0008.08,0004.37
2023-09-13 08:49:00,SystemResetWarning,0831.2,5.01,000.00,029.0,027.6,000.0,037.2,030.6,17.6,0000.0,0004.70,0008.10,0004.37
2023-09-13 08:50:00,SystemResetWarning,0831.2,5.01,000.00,029.0,027.6,000.0,037.3,030.7,17.4,0000.0,0004.71,0008.12,0004.37
2023-09-13 08:51:00,SystemResetWarning,0831.2,5.00,000.00,029.0,027.7,000.0,037.3,030.7,17.3,0000.0,0004.71,0008.17,0004.36
2023-09-13 08:52:00,SystemResetWarning,0831.2,4.99,000.00,029.0,027.7,000.0,037.3,030.7,17.4,0000.3,0004.69,0007.83,0004.35
2023-09-13 08:53:00,SystemResetWarning,0831.2,4.99,000.00,029.0,027.7,000.0,037.3,030.7,17.5,0000.4,0004.69,0007.83,0004.35
2023-09-13 08:54:00,SystemResetWarning,0831.2,4.99,000.00,029.0,027.7,000.0,037.3,030.7,17.5,0000.2,0004.72,0007.90,0004.35
2023-09-13 08:55:00,SystemResetWarning,0831.2,5.01,000.00,029.0,027.7,000.0,037.3,030.7,17.4,0000.6,0004.68,0007.72,0004.33
2023-09-13 08:56:00,SystemResetWarning,0831.2,5.00,000.00,029.0,027.7,000.0,037.3,030.7,17.4,0000.4,0004.65,0007.66,0004.32
2023-09-13 08:57:00,SystemResetWarning,0831.2,5.01,000.00,029.1,027.7,000.0,037.3,030.7,17.6,0000.3,0004.68,0007.80,0004.32
2023-09-13 08:58:00,SystemResetWarning,0831.2,5.01,000.00,029.1,027.7,000.0,037.3,030.7,17.6,0000.4,0004.69,0008.42,0004.32
2023-09-13 08:59:00,SystemResetWarning,0831.2,4.99,000.00,029.1,027.7,000.0,037.4,030.7,17.5,-000.1,0004.70,0008.55,0004.31
